LARES-2 (53105 NORAD) Tracking and Keplerian Element Data

This shows tracking and keplerian element data for the satellite.

Feedback or suggestion? Click here.




ElementValue
Catalog53105
NameLARES-2
Epoch Orbit480
Epoch Day269.6571065
Epoch Year2022
RAAN51.595
Inclination70.1657
Eccentricity0.0005648
Argument of Perigee270.5123
Mean Anonmoly89.4776
Mean Motion6.38965078
Decay Rate-5E-08
L11 53105U 22080A 22269.65710650 -.00000005 00000+0 00000+0 0 9991
L22 53105 70.1657 51.5950 0005648 270.5123 89.4776 6.38965078 4805

Live tracking and technical data element details for LARES-2 (NORAD 53105). LARES-2 can be tracked NOW for your location showing map with azimuth and elevation plus other details from your city location.

Track the satellite on the map from your city or location and see movement details for azimuth, elevation, latitude, longitude, range, height, and movement on the map or in text.







IsCatalogInMostPopularTable: catalog: 53105, numindb: 7
Update: records affected: 1



GetName: 53105 LARES-2

Hit Count: updated at: Wed, 28 Sep 2022 21:24:32 GMT